Regional Weather Roundup
Issued by NWS

Home | Current Version | Previous Version | Graphics & Text | Print | Product List | Glossary On
Versions: 1 2 3 4 5 6 7 8 9 10 11 12 13 14 15 16 17 18 19 20 21 22 23 24 25 26 27 28 29 30 31 32 33 34 35 36 37 38 39 40 41 42 43 44 45 46 47 48 49 50
000
ASUS43 KMKX 181411
RWRWI

WISCONSIN REGIONAL WEATHER ROUNDUP
NATIONAL WEATHER SERVICE MILWAUKEE/SULLIVAN WI
900 AM CDT THU SEP 18 2014

NOTE: "FAIR" INDICATES FEW OR NO CLOUDS BELOW 12,000 FEET WITH NO
SIGNIFICANT WEATHER AND/OR OBSTRUCTIONS TO VISIBILITY.

WIZ001-002-006>008-014>016-023>028-181500-
NORTHWEST WISCONSIN

CITY           SKY/WX    TMP DP  RH WIND       PRES   REMARKS
SUPERIOR ARPT  CLOUDY    45  39  80 SE8       30.16S
ASHLAND        CLOUDY    44  39  82 E5        30.18R
HAYWARD        CLOUDY    46  44  93 SE6       30.14S
SIREN          CLOUDY    48  46  91 SE6       30.13R
RICE LAKE      CLOUDY    49  47  95 E7        30.15R FOG
LADYSMITH      CLOUDY    49  47  92 E7        30.16R
EAU CLAIRE     CLOUDY    48  47  96 E8        30.14R FOG
MENOMONIE      CLOUDY    49  48  96 E8        30.13R FOG
NEW RICHMOND   CLOUDY    50  50 100 SE5       30.12R FOG
OSCEOLA        CLOUDY    50  50 100 E6        30.14R FOG
$$

WIZ003>005-009-010-017-018-181500-
NORTH CENTRAL WISCONSIN

CITY           SKY/WX    TMP DP  RH WIND       PRES   REMARKS
WOODRUFF       CLOUDY    42  39  88 SE8       30.17R
RHINELANDER    CLOUDY    39  37  92 E9        30.18R WCI  33
EAGLE RIVER    CLOUDY    39  37  92 SE5       30.17S
LAND O LAKES   CLOUDY    39  35  86 E7        30.19R WCI  34
PHILLIPS       CLOUDY    45  43  93 SE7       30.15R FOG
TOMAHAWK       CLOUDY    43  40  90 CALM      30.18R
MEDFORD        CLOUDY    44  43  97 E6        30.16R FOG
MERRILL        CLOUDY    43  42  95 S8        30.18R
$$

WIZ029-030-035-036-043>047-181500-
CENTRAL WISCONSIN

CITY           SKY/WX    TMP DP  RH WIND       PRES   REMARKS
WAUSAU         CLOUDY    42  40  92 E8        30.18R
MOSINEE        CLOUDY    43  43 100 E8        30.19R
MARSHFIELD     CLOUDY    44  43  96 E12       30.17R FOG
STEVENS POINT  CLOUDY    42  39  90 E9        30.19R
WAUPACA        CLOUDY    47  43  85 NE8       30.21R
WAUTOMA        CLOUDY    47  44  89 NE7       30.20R
WISC RAPIDS    CLOUDY    46  43  89 E12       30.19R
CAMP DOUGLAS   CLOUDY    50  50 100 E9        30.17R
$$

WIZ011>013-019>022-031-037>040-048>050-181500-
NORTHEAST WISCONSIN

CITY           SKY/WX    TMP DP  RH WIND       PRES   REMARKS
ANTIGO         CLOUDY    38  36  92 E7        30.19R WCI  33
STURGEON BAY   MOSUNNY   48  39  71 NE8       30.20R
GREEN BAY      CLOUDY    46  39  76 N8        30.20R
MANITOWOC      CLOUDY    48  43  82 VRB5      30.19R
APPLETON       CLOUDY    45  37  76 NE7       30.19R
CLINTONVILLE   CLOUDY    45  37  76 NE6       30.21R
OSHKOSH        CLOUDY    48  44  86 E10       30.19R
$$

WIZ032>034-041-042-053>061-181500-
SOUTHWEST WISCONSIN

CITY           SKY/WX    TMP DP  RH WIND       PRES   REMARKS
LA CROSSE      CLOUDY    52  50  93 E5        30.14R
SPARTA         CLOUDY    50  49  98 E6        30.16R FOG
VIROQUA        CLOUDY    49  49 100 E8        30.15R VSB<1/4
BOSCOBEL       CLOUDY    52  50  93 E5        30.16R FOG
PRAIRIE DU CHI CLOUDY    51  49  96 E6        30.14R
PLATTEVILLE    FAIR      52  50  92 E12       30.15R
$$

WIZ056-057-062-063-064-067-068-181500-
SOUTH CENTRAL WISCONSIN

CITY           SKY/WX    TMP DP  RH WIND       PRES   REMARKS
BARABOO/DELLS  CLOUDY    48  47  95 E8        30.17R FOG
LONE ROCK      CLOUDY    56  51  84 E9        30.16R HAZE
WATERTOWN      CLOUDY    48  48 100 E7        30.17R
MADISON        CLOUDY    50  48  93 E8        30.18R FOG
MIDDLETON      CLOUDY    52  52 100 E7        30.18R
MONROE         FOG       50  50 100 E7        30.16R VSB<1/4
JANESVILLE     CLOUDY    52  50  93 E6        30.16R FOG
$$

WIZ051-052-058>065-066-070>072-181500-
SOUTHEAST WISCONSIN

CITY           SKY/WX    TMP DP  RH WIND       PRES   REMARKS
MILWAUKEE      CLOUDY    53  49  86 N9G18     30.17R
WAUKESHA       CLOUDY    48  46  93 NE12      30.18R
MILWAUKEE/TIMM CLOUDY    52  46  82 N8        30.18R
RACINE         CLOUDY    56  52  86 N12       30.17R
BURLINGTON     CLOUDY    53  51  94 NE6       30.17R
KENOSHA        CLOUDY    57  54  89 N8        30.17R
FOND DU LAC    CLOUDY    48  43  82 NE8       30.19R
SHEBOYGAN      CLOUDY    49  43  80 N6        30.18R
WEST BEND      CLOUDY    46  43  87 NE7       30.18R
JUNEAU         CLOUDY    47  45  93 NE6       30.19R
$$

LSZ147-162-181500-
LAKE SUPERIOR

STATION/POSITION TIME  TEMP    WIND        PRES    WAVE
                       AIR SEA DIR/SP/G            HT/PER
                 (UTC) (F)     (DEG/KT/KT) (MB)    (FT/S)
W MID LAKE BUOY  1350   44 46  100/ 12/ 14 1023.1R   1/ 5
DEVILS ISLAND    1400   44     110/ 11/ 14 1022.8R
PORT WING        1300   44      70/  6/  8 1021.7S
SAXON HARBOR     1300   43      CALM  /  4 1022.0R
$$

LMZ867-665-643>646-181500-
LAKE MICHIGAN

STATION/POSITION TIME  TEMP    WIND        PRES    WAVE
                       AIR SEA DIR/SP/G            HT/PER
                 (UTC) (F)     (DEG/KT/KT) (MB)    (FT/S)
N MID LAKE BUOY  1350   49 58   40/ 10/ 14 1022.3R   2/ 4
NORTHPORT PIER   1300   47      20/ 10/ 12 1022.4R
KEWAUNEE LAKESHO 1300   46     360/  4/  7 1020.8R
SHEBOYGAN LAKESH 1400   47 48  350/ 13/ 15 1022.5R
PORT WASHINGTON  1340   51     360/  7/ 11 1022.4R
ATWATER BUOY     1400   53     360/ 16/ 19 1022.5R
MILWAUKEE LAKESH 1300   52     350/ 13/ 17   N/A
S MID LAKE BUOY  1350   61 62   CALM  /  2 1020.4R   2/ 5
KENOSHA   LAKESH 1400   56     360/ 10/ 12 1021.0R
$$

TC  - TEMPERATURE IN CELSIUS
VSB - VISIBILITY IN STATUTE MILES
WCI - WIND CHILL INDEX
HX  - HEAT INDEX



USA.gov is the U.S. government's official web portal to all federal, state and local government web resources and services.